リニア彗星

256P/LINEAR (2023)

English version
Home page
Updated on February 5, 2022

---------------------------------------------------------------------

・ プロフィール

・ 軌道要素

Epoch 2022 Jan. 21.0 TT = JDT 2459600.5
T 2023 Mar. 12.38133 TT                                 Rudenko
q   2.6997581            (2000.0)            P               Q
n   0.09865217     Peri.  124.22538     -0.80889272     +0.36825094
a   4.6387215      Node    81.34525     -0.56150196     -0.71504065
e   0.4179952      Incl.   27.62149     +0.17437926     -0.59422901
P   9.99
From 187 observations 2003 Jan. 27-2022 Jan. 31, mean residual 0".9.

・ 光度変化

        m1 = 12.8 + 5 logΔ + 10.0 log r

---------------------------------------------------------------------

軌道要素はM.P.E.C. 2022-C56に掲載されたものです。
光度グラフはComet for Windowsで作成したものです。

---------------------------------------------------------------------

Copyright(C) Seiichi Yoshida (comet@aerith.net). All rights reserved.